sat.trackr.live / text

‹ back to catalog

ICEYE-X41

NORAD 62700 · 2025-009CV

PAYLOAD ACTIVE UNKNOWN

§ Identity

Operator
Country
US
Launch date
2025-01-14
Launch site
AFWTR
Launch vehicle
Mass (kg)
RCS (m²)

External: N2YO · Heavens-Above · Gunter

§ Orbital elements

Epoch: 2026-05-25T04:55:38.924832Z

Period
96.22 min
Inclination
97.7065°
Eccentricity
0.0002811
Mean motion
14.96576204 rev/d
Perigee alt
575.5 km
Apogee alt
579.4 km
Semi-major
6,955.6 km
B*
2.3835e-4
RAAN
225.0689°
Arg perigee
100.3700°
Mean anomaly
259.7838°
Rev number
7,397

§ Raw data

ICEYE-X411 62700U 25009CV  26145.20531163  .00002656  00000+0  23835-3 0  99922 62700  97.7065 225.0689 0002811 100.3700 259.7838 14.96576204 73978

JSON: /api/v1/satellites/62700 · /tle

For live sub-satellite position, see the globe view (requires WebGL).

§ Visibility from observer

Set your observer location to see the next 7 days of passes ≥ 10°. The values pass through the URL so the page stays shareable.

No JS? Fill the form by hand. The geolocation button needs JavaScript.

§ Radio — SatNOGS DB

ModeDescriptionDownlinkUplink
BPSK S-band telemetry 2.264 GHz

1 transmitter · refreshed weekly from db.satnogs.org